Mason City, IA

8:52 PM CDT on June 27, 2017 (GMT -0500)
Mason City Municipal

Weather History for KMCW - December, 2013

Change the Weather History Date:

Saturday, December 28, 2013

  Actual Average Record
Temperature  
Mean Temperature 29 °F 17 °F  
Max Temperature 42 °F 25 °F 56 °F (1984)
Min Temperature 16 °F 8 °F -21 °F (1993)
Degree Days  
Heating Degree Days 36 48  
Month to date heating degree days 1384 1264  
Since 1 July heating degree days 3048 2944  
Cooling Degree Days 0 0  
Month to date cooling degree days 0 0  
Year to date cooling degree days 718 616  
Moisture  
Dew Point 27 °F    
Average Humidity 85    
Maximum Humidity 100    
Minimum Humidity 70    
Precipitation  
Precipitation 0.00 in 0.03 in 0.72 in (1966)
Month to date precipitation 0.71 1.15  
Year to date precipitation 38.55 35.11  
Snow  
Snow 0.00 in 0.30 in 9.00 in (2015)
Month to date snowfall 8.6 8.4  
Since 1 July snowfall 10.1 13.1  
Snow Depth -    
Sea Level Pressure  
Sea Level Pressure 29.87 in    
Wind  
Wind Speed 13 mph (SW)    
Max Wind Speed 31 mph    
Max Gust Speed 37 mph    
Visibility 9 miles    
Events      
T = Trace of Precipitation, MM = Missing Value Source: NWS Daily Summary

Daily Weather History Graph

Daily Weather History Graph

Search for Another Location

Airport or City:

Trip Planner

Search our weather history database for the weather conditions in past years. The results will help you decide how hot, cold, wet, or windy it might be!

Date:

Astronomy

Dec. 28, 2013 Rise Set
Actual Time 7:44 AM CST 4:45 PM CST
Civil Twilight 7:12 AM CST 5:18 PM CST
Nautical Twilight 6:36 AM CST 5:54 PM CST
Astronomical Twilight 6:01 AM CST 6:28 PM CST
Moon 3:18 AM CST 1:40 PM CST
Length of Visible Light 10h 05m
Length of Day
9h 01m
Waning Crescent, 19% of the Moon is Illuminated
Dec 28
Waning Crescent
Jan 1
New
Jan 7
First Quarter
Jan 15
Full
Jan 23
Last Quarter

Hourly Weather History & Observations

Time (CST) Temp. Windchill Dew Point Humidity Pressure Visibility Wind Dir Wind Speed Gust Speed Precip Events Conditions
12:53 AM 26.1 °F 20.5 °F 24.1 °F 92% 30.04 in 10.0 mi South 4.6 mph - N/A   Clear
1:53 AM 27.0 °F 20.5 °F 25.0 °F 92% 30.01 in 10.0 mi SSW 5.8 mph - N/A   Clear
2:53 AM 26.1 °F 18.4 °F 24.1 °F 92% 30.00 in 10.0 mi South 6.9 mph - N/A   Clear
3:53 AM 26.1 °F 18.4 °F 25.0 °F 96% 29.98 in 10.0 mi South 6.9 mph - N/A   Clear
4:53 AM 23.0 °F 17.0 °F 21.9 °F 96% 29.96 in 10.0 mi SSE 4.6 mph - N/A   Clear
5:53 AM 24.1 °F 15.2 °F 21.9 °F 91% 29.96 in 10.0 mi South 8.1 mph - N/A   Clear
6:53 AM 24.1 °F 15.2 °F 21.9 °F 91% 29.94 in 10.0 mi South 8.1 mph - N/A   Clear
7:53 AM 24.1 °F 18.2 °F 21.9 °F 91% 29.92 in 10.0 mi South 4.6 mph - N/A   Clear
8:53 AM 30.9 °F 22.2 °F 27.0 °F 85% 29.90 in 10.0 mi SSW 10.4 mph - N/A   Clear
9:53 AM 35.1 °F 26.4 °F 28.9 °F 78% 29.88 in 10.0 mi South 12.7 mph - N/A   Clear
10:53 AM 37.0 °F 30.4 °F 28.9 °F 73% 29.86 in 10.0 mi South 9.2 mph - N/A   Clear
11:53 AM 39.0 °F 31.8 °F 30.0 °F 70% 29.83 in 10.0 mi SSW 11.5 mph - N/A   Clear
12:53 PM 39.9 °F 32.1 °F 32.0 °F 73% 29.78 in 10.0 mi SSW 13.8 mph - N/A   Clear
1:53 PM 41.0 °F 33.9 °F 33.1 °F 73% 29.76 in 10.0 mi South 12.7 mph - N/A   Clear
2:53 PM 42.1 °F 36.1 °F 34.0 °F 73% 29.73 in 10.0 mi South 10.4 mph - N/A   Clear
3:53 PM 42.1 °F 35.7 °F 34.0 °F 73% 29.72 in 10.0 mi South 11.5 mph - N/A   Clear
4:53 PM 39.9 °F 32.5 °F 34.0 °F 79% 29.73 in 10.0 mi SSW 12.7 mph - N/A   Clear
5:53 PM 37.0 °F 29.8 °F 32.0 °F 82% 29.74 in 10.0 mi SSW 10.4 mph - N/A   Clear
6:44 PM 37.9 °F 30.9 °F 32.0 °F 79% 29.75 in 10.0 mi West 10.4 mph - N/A   Clear
6:53 PM 37.9 °F 30.5 °F 32.0 °F 79% 29.78 in 10.0 mi West 11.5 mph - N/A   Clear
7:51 PM 33.8 °F 21.9 °F 30.2 °F 87% 29.79 in 10.0 mi NW 21.9 mph 29.9 mph N/A   Scattered Clouds
7:53 PM 33.1 °F 20.1 °F 30.9 °F 92% 29.82 in 10.0 mi NW 25.3 mph 33.4 mph N/A   Mostly Cloudy
8:53 PM 30.0 °F 16.0 °F 28.0 °F 92% 29.85 in 7.0 mi NNW 25.3 mph 31.1 mph N/A   Overcast
9:19 PM 26.1 °F 10.4 °F 25.0 °F 96% 29.85 in 4.0 mi NW 26.5 mph 32.2 mph N/A   Overcast
9:53 PM 21.9 °F 4.2 °F 21.0 °F 96% 29.90 in 4.0 mi NW 28.8 mph 36.8 mph N/A   Overcast
10:26 PM 21.0 °F 4.3 °F 19.0 °F 92% 29.89 in 5.0 mi NW 24.2 mph 31.1 mph N/A   Overcast
10:53 PM 19.0 °F 1.3 °F 18.0 °F 96% 29.94 in 5.0 mi NW 25.3 mph 32.2 mph N/A   Overcast
11:53 PM 16.0 °F -1.7 °F 15.1 °F 96% 29.98 in 5.0 mi WNW 21.9 mph 32.2 mph N/A   Overcast